Imperial, CA

6:52 AM PDT on August 18, 2017 (GMT -0700)
Imperial County

Weather History for KIPL - February, 2014

Change the Weather History Date:

Friday, February 28, 2014

  Actual Average Record
Temperature  
Mean Temperature 72 °F -  
Max Temperature 82 °F 76 °F 92 °F (1986)
Min Temperature 62 °F 49 °F 28 °F (1962)
Cooling Degree Days 7    
Growing Degree Days 22 (Base 50)    
Moisture  
Dew Point 49 °F    
Average Humidity 48    
Maximum Humidity 63    
Minimum Humidity 34    
Precipitation  
Precipitation 0.00 in - - ()
Sea Level Pressure  
Sea Level Pressure 29.71 in    
Wind  
Wind Speed 10 mph (SSW)    
Max Wind Speed 24 mph    
Max Gust Speed 36 mph    
Visibility 10 miles    
Events Rain    
Averages and records for this station are not official NWS values.
T = Trace of Precipitation, MM = Missing Value Source: NWS Daily Summary

Daily Weather History Graph

Daily Weather History Graph

Search for Another Location

Airport or City:

Trip Planner

Search our weather history database for the weather conditions in past years. The results will help you decide how hot, cold, wet, or windy it might be!

Date:

Astronomy

Feb. 28, 2014 Rise Set
Actual Time 6:11 AM PST 5:38 PM PST
Civil Twilight 5:46 AM PST 6:03 PM PST
Nautical Twilight 5:17 AM PST 6:32 PM PST
Astronomical Twilight 4:49 AM PST 7:00 PM PST
Moon 5:28 AM PST (2/28) 5:19 PM PST (2/28)
Length of Visible Light 12h 17m
Length of Day
11h 27m
Waning Crescent, 0% of the Moon is Illuminated
Feb 28
Waning Crescent
Mar 1
New
Mar 8
First Quarter
Mar 16
Full
Mar 23
Last Quarter

Hourly Weather History & Observations

Time (PST) Temp. Heat Index Dew Point Humidity Pressure Visibility Wind Dir Wind Speed Gust Speed Precip Events Conditions
12:53 AM 66.9 °F - 46.9 °F 49% 29.80 in 10.0 mi NNW 3.5 mph - N/A   Scattered Clouds
1:53 AM 69.1 °F - 52.0 °F 54% 29.78 in 10.0 mi West 11.5 mph - 0.00 in Rain Light Rain
2:53 AM 64.9 °F - 51.1 °F 61% 29.76 in 10.0 mi SSE 5.8 mph - 0.00 in Rain Light Rain
3:53 AM 63.0 °F - 48.0 °F 58% 29.75 in 10.0 mi East 4.6 mph - 0.00 in   Scattered Clouds
4:53 AM 62.1 °F - 48.9 °F 62% 29.75 in 10.0 mi SSE 8.1 mph - N/A   Partly Cloudy
5:53 AM 63.0 °F - 48.9 °F 60% 29.76 in 10.0 mi SSE 5.8 mph - N/A   Clear
6:53 AM 63.0 °F - 48.9 °F 60% 29.76 in 10.0 mi ESE 5.8 mph - N/A   Partly Cloudy
7:53 AM 64.9 °F - 52.0 °F 63% 29.77 in 10.0 mi ESE 8.1 mph - N/A   Mostly Cloudy
8:53 AM 69.1 °F - 52.0 °F 54% 29.77 in 10.0 mi SE 9.2 mph - N/A   Overcast
9:53 AM 71.1 °F - 57.0 °F 61% 29.76 in 10.0 mi SE 13.8 mph - N/A   Overcast
10:53 AM 75.0 °F - 57.9 °F 55% 29.75 in 10.0 mi SE 13.8 mph - N/A   Overcast
11:53 AM 79.0 °F - 54.0 °F 42% 29.72 in 10.0 mi SE 16.1 mph - N/A   Mostly Cloudy
12:53 PM 82.0 °F 81.3 °F 54.0 °F 38% 29.67 in 10.0 mi SSE 13.8 mph 21.9 mph N/A   Scattered Clouds
1:53 PM 81.0 °F 80.5 °F 54.0 °F 39% 29.67 in 10.0 mi South 16.1 mph 21.9 mph 0.00 in Rain Light Rain
2:53 PM 79.0 °F - 54.0 °F 42% 29.66 in 10.0 mi SW 12.7 mph - 0.00 in   Overcast
3:53 PM 77.0 °F - 51.1 °F 40% 29.63 in 10.0 mi WSW 8.1 mph - 0.00 in   Partly Cloudy
4:53 PM 77.0 °F - 48.0 °F 36% 29.64 in 8.0 mi SW 20.7 mph 28.8 mph N/A   Mostly Cloudy
5:53 PM 75.0 °F - 48.0 °F 38% 29.63 in 10.0 mi SW 16.1 mph 35.7 mph N/A   Overcast
6:12 PM 75.0 °F - 46.9 °F 37% 29.64 in 10.0 mi WSW 13.8 mph 28.8 mph N/A   Overcast
6:25 PM 75.0 °F - 46.0 °F 36% 29.65 in 10.0 mi SSW 17.3 mph 24.2 mph N/A   Mostly Cloudy
6:53 PM 73.9 °F - 44.1 °F 34% 29.65 in 10.0 mi WSW 13.8 mph 20.7 mph N/A   Mostly Cloudy
7:53 PM 68.0 °F - 48.9 °F 50% 29.70 in 9.0 mi WNW 24.2 mph 31.1 mph N/A   Mostly Cloudy
8:53 PM 66.0 °F - 46.9 °F 50% 29.73 in 9.0 mi WNW 23.0 mph 33.4 mph N/A   Partly Cloudy
9:53 PM 68.0 °F - 45.0 °F 43% 29.72 in 10.0 mi NW 12.7 mph 29.9 mph N/A   Scattered Clouds
10:07 PM 68.0 °F - 45.0 °F 43% 29.72 in 10.0 mi NW 11.5 mph 23.0 mph N/A   Scattered Clouds
10:22 PM 69.1 °F - 44.1 °F 40% 29.71 in 10.0 mi WNW 9.2 mph 34.5 mph N/A   Partly Cloudy
10:53 PM 66.0 °F - 46.0 °F 48% 29.73 in 10.0 mi WNW 8.1 mph - N/A   Clear
11:53 PM 64.9 °F - 44.1 °F 47% 29.73 in 10.0 mi West 17.3 mph 26.5 mph N/A   Clear